Regional Weather Roundup
Issued by NWS

Home | Current Version | Previous Version | Text Only | Print | Product List | Glossary On
Versions: 1 2 3 4 5 6 7 8 9 10 11 12 13 14 15 16 17 18 19 20 21 22 23 24 25 26 27 28
000
ASUS44 KBMX 260710
RWRAL

ALABAMA REGIONAL WEATHER ROUNDUP
NATIONAL WEATHER SERVICE BIRMINGHAM AL
200 AM CDT THU MAY 26 2016

NOTE: "FAIR" INDICATES FEW OR NO CLOUDS BELOW 12,000 FEET
WITH NO SIGNIFICANT WEATHER AND/OR OBSTRUCTIONS TO VISIBILITY.

THE REMARK "TC" DENOTES TEMPERATURE IN DEGREES CELSIUS.

ALZ001>011-014-016>018-020-260800-
NORTH ALABAMA

CITY           SKY/WX    TMP DP  RH WIND       PRES   REMARKS
MUSCLE SHOALS  CLOUDY    65  61  87 E3        30.10F
HUNTSVILLE     PTCLDY    69  59  70 CALM      30.11S
DECATUR        CLEAR     65  61  87 CALM      30.11S
HALEYVILLE     FAIR      65  61  87 S5        30.13F
GADSDEN        CLOUDY    65  61  87 CALM      30.12F
$$

ALZ012-013-022-023-030>036-040>044-260800-
WEST CENTRAL ALABAMA

CITY           SKY/WX    TMP DP  RH WIND       PRES   REMARKS
TUSCALOOSA     CLEAR     66  63  90 CALM      30.11S
$$

ALZ015-024>027-033>036-040>044-260800-
CENTRAL ALABAMA

CITY           SKY/WX    TMP DP  RH WIND       PRES   REMARKS
BIRMINGHAM     PTCLDY    70  61  73 CALM      30.13F
MONTGOMERY     CLEAR     69  63  81 CALM      30.12F
SHELBY CO ARPT PTCLDY    66  62  87 CALM      30.12F
MAXWELL AFB    CLEAR     67  65  94 CALM      30.12F
GREENVILLE     FAIR      67  63  87 CALM      30.12F
$$

ALZ019-021-028-029-037-038-045>048-260800-
EAST CENTRAL ALABAMA

CITY           SKY/WX    TMP DP  RH WIND       PRES   REMARKS
ANNISTON       PTCLDY    67  62  84 CALM      30.13F
ALEXANDER CITY CLEAR     63  63 100 CALM      30.14F
AUBURN         CLEAR    N/A N/A N/A CALM      30.16F
$$

ALZ051>064-260800-
SOUTHWEST ALABAMA

CITY           SKY/WX    TMP DP  RH WIND       PRES   REMARKS
MOBILE         PTCLDY    66  66 100 CALM      30.10F
BROOKLEY FIELD PTCLDY    75  68  78 S7        30.11F
EVERGREEN      MOCLDY    69  64  84 CALM      30.12F
$$

ALZ049-050-065>069-260800-
SOUTHEAST ALABAMA

CITY           SKY/WX    TMP DP  RH WIND       PRES   REMARKS
DOTHAN         PTCLDY    71  68  90 CALM      30.16F
OZARK          CLEAR     69  67  95 N1        30.12F
TROY           CLEAR     67  65  93 CALM      30.14F
EUFAULA        FAIR      67  63  87 CALM      30.13S
$$




USA.gov is the U.S. government's official web portal to all federal, state and local government web resources and services.